COSMOS 1275 DEB, 18275

Orbit data source: Space-Track

COSMOS 1275 DEB, 18275 is space debris in LEO originally from a launch on Thu, 04 Jun 1981 UTC launched from the Plesetsk Missile And Space Complex (PKMTR). Debris objects in space refer to the collection of defunct objects orbiting the Earth. Examples of debris include non-operational satellites, rocket bodies, and fragments generated from explosions, collisions, or faulty payload assembly.

Loading next visibility...
Identifier
18275, 1981-053LQ
Orbit
LEO
Country
Flag of CISCIS
Related business
Manufacturer
Unknown
Mission
Spacecraft
Bus & Motor
Unknown
Mass
Unknown
Launch date (UTC)
1981-06-04 (45 years ago)
Launch vehicle
Unknown
Launch site
Plesetsk Missile And Space Complex (PKMTR)
Object type
Payload
Rocket body
Debris
Shape & HBR
Unknown shape, 0.1 m
Radar Cross Section
Medium (>0.1 m² and <1 m²)

Expand to show TLE details & history
Last TLE update: 1 day ago

TLE from 1 day ago
0 COSMOS 1275 DEB
1 18275U 81053LQ  26171.32325294  .00000807  00000-0  86353-3 0  9990
2 18275  82.9270 181.1404 0127185 301.8299 116.6831 13.69351240 56773
Epoch: 2026-06-20T07:45Z
TLE epoch observation values (Epoch: 2026-06-20T07:45:29.054Z)
Latitude
59.15808°
Longitude
168.16052°
Altitude
1,055.025 km
Speed
7.308 km/s
True Right ascension
12h 52m 17s
True Declination
59° 00' 45"
Sunlit
Object was in daylight at epoch
Visualization orbit readout
Latitude
Unknown
Longitude
Unknown
Altitude
Unknown
Speed
Unknown
Apparent Right ascension
Unknown
Apparent Declination
Unknown
Sunlit
N/A
Visualization observer readout
Local Sidereal Time
02:47:00
Azimuth
Unknown
Elevation
Unknown
Doppler factor
Unknown
Orbital elements
Apogee altitude
1,092.884 km
Perigee altitude
905.231 km
Semi-major axis
7,377.195 km
Eccentricity
0.01272
Inclination
82.927°
RAAN
181.1404°
Arg. of periapsis
301.8299°
True anomaly
117.97598°
Mean anomaly
116.6831°
Eccentric anomaly
117.33047°
Mean motion
3.42536 °/min
Orbital period
105.1 mins
BSTAR
0.00086353
Loading maneuver chart data...
Computing Atmospheric mass density...

Documentation

Showing up to 5 results
|